Location: Ammerl�gen
(47.2167°N, 9.6000°E)
Time: 05:02:57
(UTC+00:00)

NOAA 19 - Pass Details

Date: 09 December 2021
Orbit: 841 x 860 km, 99.2° (Epoch: 16 January)

Event Time Altitude Azimuth Distance (km) Brightness Sun altitude
Rises 19:16:00 0° 205° (SSW) 3,386 8.5 -37.1°
Reaches altitude 10° 19:18:57 10° 221° (SW) 2,458 7.9 -37.6°
Maximum altitude 19:22:57 21° 269° (W) 1,832 7.5 -38.2°
Drops below altitude 10° 19:26:59 10° 316° (NW) 2,478 8.1 -38.9°
Sets 19:30:00 0° 333° (NNW) 3,422 8.8 -39.4°
